User: anonymous   Login
Location: Theydon Bois
(51.6750°N, 0.1050°E)
Time: 21:48:18
(UTC+01:00)
Language:

MOS 1-B Rocket - Orbit

View from above orbital plane
View from above orbital plane
View from above satellite
View from above satellite

Ground track
Ground track

The orbit data is extracted from the following two-line orbital elements,

1 20491U 90013D   17290.43586347 -.00000630  00000-0 -11179-2 0  9990
2 20491  99.0322 328.4580 0468644  23.2683 338.8910 13.03527512316921
Epoch (UTC): 17 October 2017 10:27:38
Eccentricity: 0.0468644
inclination: 99.0322°
perigee height: 891 km
apogee height: 1606 km
right ascension of ascending node: 328.4580°
argument of perigee: 23.2683°
revolutions per day: 13.03527512
mean anomaly at epoch: 338.8910°
orbit number at epoch: 31692

The dashed part of the orbit path shows where the satellite is in the earth's shadow,  

DLR